Time,TemperatureF,DewpointF,PressureIn,WindDirection,WindDirectionDegrees,WindSpeedMPH,WindSpeedGustMPH,Humidity,HourlyPrecipIn,Conditions,Clouds,dailyrainin,SoftwareType,DateUTC
2016-07-27 00:03:00,75.0,72.0,-100.00,West,275,-999.9,-999.0,91,-99.99,,,-99.99,,2016-07-27 04:03:00,
2016-07-27 00:11:00,75.0,72.0,-100.00,North,-9999,-999.9,-999.0,91,-99.99,,,-99.99,,2016-07-27 04:11:00,
2016-07-27 00:21:00,75.0,72.0,-100.00,NW,320,0.0,-999.0,91,-99.99,,,-99.99,,2016-07-27 04:21:00,
2016-07-27 00:43:00,75.0,72.0,-100.00,NE,50,-999.9,-999.0,90,-99.99,,,-99.99,,2016-07-27 04:43:00,
2016-07-27 01:16:00,74.0,72.0,-100.00,West,280,-999.9,-999.0,92,-99.99,,,-99.99,,2016-07-27 05:16:00,
2016-07-27 01:22:00,74.0,72.0,-100.00,West,275,0.0,-999.0,93,-99.99,,,-99.99,,2016-07-27 05:22:00,
2016-07-27 01:35:00,75.0,72.0,-100.00,NE,40,0.0,-999.0,92,-99.99,,,-99.99,,2016-07-27 05:35:00,
2016-07-27 02:01:00,75.0,68.0,-100.00,NE,45,1.0,-999.0,78,-99.99,,,-99.99,,2016-07-27 06:01:00,
2016-07-27 02:13:00,75.0,68.0,-100.00,NNE,30,-999.9,-999.0,79,-99.99,,,-99.99,,2016-07-27 06:13:00,
2016-07-27 02:22:00,75.0,67.0,-100.00,NNE,30,1.0,-999.0,77,-99.99,,,-99.99,,2016-07-27 06:22:00,
2016-07-27 02:36:00,75.0,66.0,-100.00,NNE,25,0.0,1.0,74,-99.99,,,-99.99,,2016-07-27 06:36:00,
2016-07-27 02:45:00,75.0,66.0,-100.00,NE,35,0.0,1.0,73,-99.99,,,-99.99,,2016-07-27 06:45:00,
2016-07-27 03:08:00,74.0,67.0,-100.00,ENE,65,0.0,0.0,78,-99.99,,,-99.99,,2016-07-27 07:08:00,
2016-07-27 03:37:00,74.0,66.0,-100.00,North,5,0.0,0.0,77,-99.99,,,-99.99,,2016-07-27 07:37:00,
2016-07-27 03:47:00,74.0,66.0,-100.00,NW,315,0.0,0.0,76,-99.99,,,-99.99,,2016-07-27 07:47:00,
2016-07-27 03:54:00,74.0,66.0,-100.00,NE,50,0.0,0.0,76,-99.99,,,-99.99,,2016-07-27 07:54:00,
2016-07-27 04:04:00,73.0,66.0,-100.00,ENE,65,0.0,0.0,77,-99.99,,,-99.99,,2016-07-27 08:04:00,
2016-07-27 04:13:00,73.0,66.0,-100.00,ENE,75,0.0,0.0,77,-99.99,,,-99.99,,2016-07-27 08:13:00,
2016-07-27 04:35:00,73.0,67.0,-100.00,NW,325,0.0,1.0,82,-99.99,,,-99.99,,2016-07-27 08:35:00,
2016-07-27 04:44:00,72.0,65.0,-100.00,NW,325,0.0,1.0,79,-99.99,,,-99.99,,2016-07-27 08:44:00,
2016-07-27 04:54:00,73.0,66.0,-100.00,ENE,65,0.0,0.0,80,-99.99,,,-99.99,,2016-07-27 08:54:00,
2016-07-27 05:03:00,73.0,65.0,-100.00,NE,45,0.0,1.0,76,-99.99,,,-99.99,,2016-07-27 09:03:00,
2016-07-27 05:13:00,72.0,65.0,-100.00,North,5,0.0,1.0,79,-99.99,,,-99.99,,2016-07-27 09:13:00,
2016-07-27 06:00:00,72.0,65.0,-100.00,NNE,15,0.0,-999.0,78,-99.99,,,-99.99,,2016-07-27 10:00:00,
2016-07-27 06:11:00,72.0,65.0,-100.00,NE,40,-999.9,-999.0,78,-99.99,,,-99.99,,2016-07-27 10:11:00,
2016-07-27 06:21:00,72.0,65.0,-100.00,NE,45,1.0,-999.0,79,-99.99,,,-99.99,,2016-07-27 10:21:00,
2016-07-27 06:41:00,72.0,63.0,-100.00,NNE,30,-999.9,-999.0,73,-99.99,,,-99.99,,2016-07-27 10:41:00,
2016-07-27 06:52:00,71.0,63.0,-100.00,ENE,60,0.0,-999.0,75,-99.99,,,-99.99,,2016-07-27 10:52:00,
2016-07-27 07:01:00,72.0,63.0,-100.00,ENE,60,1.0,-999.0,75,-99.99,,,-99.99,,2016-07-27 11:01:00,
2016-07-27 07:12:00,72.0,63.0,-100.00,NE,40,-999.9,-999.0,75,-99.99,,,-99.99,,2016-07-27 11:12:00,
2016-07-27 07:22:00,72.0,64.0,-100.00,ENE,60,0.0,-999.0,77,-99.99,,,-99.99,,2016-07-27 11:22:00,
2016-07-27 07:42:00,72.0,64.0,-100.00,NNE,15,-999.9,-999.0,75,-99.99,,,-99.99,,2016-07-27 11:42:00,
2016-07-27 07:49:00,72.0,64.0,-100.00,NNE,20,1.0,-999.0,76,-99.99,,,-99.99,,2016-07-27 11:49:00,
2016-07-27 08:13:00,73.0,64.0,-100.00,ENE,70,0.0,-999.0,74,-99.99,,,-99.99,,2016-07-27 12:13:00,
2016-07-27 08:39:00,76.0,65.0,-100.00,East,80,1.0,1.0,69,-99.99,,,-99.99,,2016-07-27 12:39:00,
2016-07-27 08:49:00,75.0,65.0,-100.00,North,10,0.0,-999.0,71,-99.99,,,-99.99,,2016-07-27 12:49:00,
2016-07-27 09:01:00,75.0,65.0,-100.00,NNE,30,0.0,2.0,72,-99.99,,,-99.99,,2016-07-27 13:01:00,
2016-07-27 09:09:00,76.0,65.0,-100.00,NE,35,1.0,2.0,71,-99.99,,,-99.99,,2016-07-27 13:09:00,
2016-07-27 09:16:00,76.0,66.0,-100.00,NE,35,1.0,2.0,69,-99.99,,,-99.99,,2016-07-27 13:16:00,
2016-07-27 09:46:00,78.0,66.0,-100.00,North,10,1.0,2.0,66,-99.99,,,-99.99,,2016-07-27 13:46:00,
2016-07-27 09:55:00,78.0,67.0,-100.00,ENE,75,0.0,-999.0,68,-99.99,,,-99.99,,2016-07-27 13:55:00,
2016-07-27 10:05:00,78.0,67.0,-100.00,South,170,1.0,2.0,70,-99.99,,,-99.99,,2016-07-27 14:05:00,
2016-07-27 10:15:00,79.0,68.0,-100.00,WSW,250,1.0,2.0,70,-99.99,,,-99.99,,2016-07-27 14:15:00,
2016-07-27 10:34:00,79.0,69.0,-100.00,West,275,2.0,3.0,72,-99.99,,,-99.99,,2016-07-27 14:34:00,
2016-07-27 10:44:00,79.0,68.0,-100.00,WNW,300,1.0,4.0,70,-99.99,,,-99.99,,2016-07-27 14:44:00,
2016-07-27 10:54:00,80.0,69.0,-100.00,West,260,2.0,4.0,70,-99.99,,,-99.99,,2016-07-27 14:54:00,
2016-07-27 11:04:00,81.0,69.0,-100.00,West,270,0.0,4.0,68,-99.99,,,-99.99,,2016-07-27 15:04:00,
2016-07-27 11:14:00,82.0,69.0,-100.00,NW,310,1.0,2.0,66,-99.99,,,-99.99,,2016-07-27 15:14:00,
2016-07-27 11:41:00,83.0,71.0,-100.00,NW,305,2.0,-999.0,67,-99.99,,,-99.99,,2016-07-27 15:41:00,
2016-07-27 11:51:00,82.0,70.0,-100.00,West,265,1.0,-999.0,65,-99.99,,,-99.99,,2016-07-27 15:51:00,
2016-07-27 12:03:00,83.0,70.0,-100.00,West,275,2.0,-999.0,65,-99.99,,,-99.99,,2016-07-27 16:03:00,
2016-07-27 12:11:00,83.0,71.0,-100.00,West,260,2.0,-999.0,66,-99.99,,,-99.99,,2016-07-27 16:11:00,
2016-07-27 13:15:00,84.0,71.0,-100.00,West,270,-999.9,-999.0,65,-99.99,,,-99.99,,2016-07-27 17:15:00,
2016-07-27 13:22:00,84.0,71.0,-100.00,West,265,-999.9,-999.0,64,-99.99,,,-99.99,,2016-07-27 17:22:00,
2016-07-27 13:42:00,86.0,68.0,-100.00,SW,215,2.0,-999.0,59,-99.99,,,-99.99,,2016-07-27 17:42:00,
2016-07-27 13:53:00,88.0,70.0,-100.00,WNW,295,-999.9,-999.0,56,-99.99,,,-99.99,,2016-07-27 17:53:00,
2016-07-27 14:04:00,87.0,68.0,-100.00,NW,310,2.0,-999.0,53,-99.99,,,-99.99,,2016-07-27 18:04:00,
2016-07-27 14:12:00,87.0,72.0,-100.00,WSW,245,1.0,-999.0,62,-99.99,,,-99.99,,2016-07-27 18:12:00,
2016-07-27 14:22:00,88.0,71.0,-100.00,SW,235,1.0,-999.0,58,-99.99,,,-99.99,,2016-07-27 18:22:00,
2016-07-27 14:43:00,85.0,68.0,-100.00,SSW,205,1.0,-999.0,57,-99.99,,,-99.99,,2016-07-27 18:43:00,
2016-07-27 14:55:00,86.0,70.0,-100.00,West,270,2.0,6.0,60,-99.99,,,-99.99,,2016-07-27 18:55:00,
2016-07-27 15:08:00,86.0,71.0,-100.00,WNW,285,1.0,4.0,61,-99.99,,,-99.99,,2016-07-27 19:08:00,
2016-07-27 15:17:00,87.0,70.0,-100.00,WSW,240,2.0,6.0,56,-99.99,,,-99.99,,2016-07-27 19:17:00,
2016-07-27 15:36:00,89.0,71.0,-100.00,WSW,240,1.0,5.0,55,-99.99,,,-99.99,,2016-07-27 19:36:00,
2016-07-27 15:45:00,89.0,69.0,-100.00,West,260,2.0,4.0,52,-99.99,,,-99.99,,2016-07-27 19:45:00,
2016-07-27 15:57:00,88.0,70.0,-100.00,WNW,295,4.0,4.0,56,-99.99,,,-99.99,,2016-07-27 19:57:00,
2016-07-27 16:04:00,88.0,69.0,-100.00,West,280,2.0,4.0,53,-99.99,,,-99.99,,2016-07-27 20:04:00,
2016-07-27 16:13:00,86.0,69.0,-100.00,West,275,1.0,3.0,57,-99.99,,,-99.99,,2016-07-27 20:13:00,
2016-07-27 16:34:00,89.0,69.0,-100.00,WNW,295,2.0,4.0,51,-99.99,,,-99.99,,2016-07-27 20:34:00,
2016-07-27 16:44:00,89.0,69.0,-100.00,South,170,1.0,4.0,51,-99.99,,,-99.99,,2016-07-27 20:44:00,
2016-07-27 16:54:00,91.0,69.0,-100.00,SW,230,1.0,3.0,49,-99.99,,,-99.99,,2016-07-27 20:54:00,
2016-07-27 17:05:00,90.0,68.0,-100.00,West,265,3.0,4.0,49,-99.99,,,-99.99,,2016-07-27 21:05:00,
2016-07-27 17:13:00,89.0,69.0,-100.00,West,270,4.0,4.0,52,-99.99,,,-99.99,,2016-07-27 21:13:00,
2016-07-27 18:03:00,89.0,68.0,-100.00,WSW,255,2.0,-999.0,50,-99.99,,,-99.99,,2016-07-27 22:03:00,
2016-07-27 18:11:00,89.0,68.0,-100.00,North,-9999,-999.9,-999.0,50,-99.99,,,-99.99,,2016-07-27 22:11:00,
2016-07-27 18:21:00,87.0,70.0,-100.00,WSW,240,1.0,-999.0,57,-99.99,,,-99.99,,2016-07-27 22:21:00,